RSC28L GCXO-GCLA

Flight info

Callsign RSC28L
Flight time 0h 24m
Altitude 14000
Route ARACO
Aircraft AT76/M-SDFGIRY/S

Departure

Time 2026-04-29 23:34
Airport Tenerife Norte-Ciudad de La Laguna Airport (GCXO)

Arrival

Time 2026-04-29 23:58
Airport La Palma Airport (GCLA)
Time Latitude Longitude Altitude Speed Heading
2026-04-29 23:13 28.48679 -16.34658 2066 ft 0 kts 21°
2026-04-29 23:29 28.48675 -16.34660 2066 ft 3 kts 20°
2026-04-29 23:29 28.48641 -16.34675 2066 ft 7 kts 20°
2026-04-29 23:30 28.48588 -16.34698 2066 ft 3 kts 49°
2026-04-29 23:30 28.48581 -16.34671 2066 ft 10 kts 125°
2026-04-29 23:30 28.48523 -16.34579 2064 ft 19 kts 109°
2026-04-29 23:30 28.48467 -16.34408 2062 ft 26 kts 111°
2026-04-29 23:31 28.48401 -16.34222 2058 ft 25 kts 113°
2026-04-29 23:31 28.48345 -16.34042 2053 ft 24 kts 110°
2026-04-29 23:31 28.48285 -16.33866 2049 ft 24 kts 111°
2026-04-29 23:31 28.48226 -16.33685 2040 ft 25 kts 111°
2026-04-29 23:32 28.48173 -16.33554 2032 ft 13 kts 146°
2026-04-29 23:32 28.48122 -16.33587 2032 ft 6 kts 296°
2026-04-29 23:32 28.48123 -16.33589 2032 ft 1 kts 298°
2026-04-29 23:32 28.48138 -16.33653 2035 ft 18 kts 264°
2026-04-29 23:33 28.48141 -16.33776 2041 ft 24 kts 291°
2026-04-29 23:33 28.48265 -16.34145 2055 ft 78 kts 291°
2026-04-29 23:33 28.48515 -16.34906 2098 ft 121 kts 290°
2026-04-29 23:33 28.48850 -16.35839 2496 ft 133 kts 291°
2026-04-29 23:34 28.49182 -16.36862 2983 ft 143 kts 286°
2026-04-29 23:34 28.49388 -16.38000 3301 ft 154 kts 279°
2026-04-29 23:34 28.49520 -16.39272 3362 ft 176 kts 275°
2026-04-29 23:34 28.49656 -16.40678 3745 ft 177 kts 278°
2026-04-29 23:35 28.49859 -16.42064 4198 ft 177 kts 280°
2026-04-29 23:35 28.50105 -16.43448 4617 ft 179 kts 281°
2026-04-29 23:35 28.50373 -16.44831 5021 ft 179 kts 282°
2026-04-29 23:35 28.50611 -16.46201 5403 ft 179 kts 272°
2026-04-29 23:36 28.50418 -16.47588 5717 ft 179 kts 259°
2026-04-29 23:36 28.50196 -16.48988 6085 ft 180 kts 261°
2026-04-29 23:36 28.50027 -16.50398 6450 ft 180 kts 264°
2026-04-29 23:36 28.49902 -16.51822 6794 ft 181 kts 265°
2026-04-29 23:37 28.49803 -16.53256 7123 ft 182 kts 266°
2026-04-29 23:37 28.49707 -16.54699 7448 ft 183 kts 266°
2026-04-29 23:37 28.49609 -16.56147 7785 ft 183 kts 266°
2026-04-29 23:37 28.49510 -16.57600 7964 ft 192 kts 266°
2026-04-29 23:38 28.49404 -16.59173 8025 ft 206 kts 266°
2026-04-29 23:38 28.49288 -16.60848 8053 ft 218 kts 266°
2026-04-29 23:38 28.49167 -16.62601 8063 ft 227 kts 266°
2026-04-29 23:38 28.49042 -16.64418 8071 ft 234 kts 266°
2026-04-29 23:39 28.48912 -16.66288 8073 ft 239 kts 266°
2026-04-29 23:39 28.48781 -16.68187 8071 ft 243 kts 266°
2026-04-29 23:39 28.48647 -16.70116 8068 ft 245 kts 266°
2026-04-29 23:39 28.48513 -16.72033 8068 ft 247 kts 266°
2026-04-29 23:40 28.48376 -16.73996 8070 ft 248 kts 266°
2026-04-29 23:40 28.48239 -16.75958 8071 ft 249 kts 266°
2026-04-29 23:40 28.48101 -16.77926 8070 ft 250 kts 266°
2026-04-29 23:40 28.47962 -16.79902 8073 ft 250 kts 266°
2026-04-29 23:41 28.47825 -16.81851 8074 ft 251 kts 266°
2026-04-29 23:41 28.47689 -16.83830 8074 ft 251 kts 266°
2026-04-29 23:41 28.47548 -16.85813 8076 ft 251 kts 266°
2026-04-29 23:41 28.47407 -16.87796 8075 ft 251 kts 266°
2026-04-29 23:42 28.47267 -16.89779 8073 ft 251 kts 266°
2026-04-29 23:42 28.47128 -16.91760 8075 ft 252 kts 266°
2026-04-29 23:42 28.46986 -16.93744 8073 ft 252 kts 266°
2026-04-29 23:42 28.46844 -16.95726 8073 ft 252 kts 266°
2026-04-29 23:43 28.46703 -16.97710 8075 ft 252 kts 266°
2026-04-29 23:43 28.46563 -16.99695 8072 ft 252 kts 266°
2026-04-29 23:43 28.46419 -17.01656 8073 ft 252 kts 266°
2026-04-29 23:43 28.46278 -17.03645 8070 ft 252 kts 265°
2026-04-29 23:44 28.46135 -17.05627 8067 ft 252 kts 266°
2026-04-29 23:44 28.45992 -17.07606 8067 ft 251 kts 266°
2026-04-29 23:44 28.45847 -17.09584 8061 ft 251 kts 266°
2026-04-29 23:44 28.45706 -17.11562 8063 ft 251 kts 265°
2026-04-29 23:45 28.45563 -17.13540 8060 ft 251 kts 266°
2026-04-29 23:45 28.45417 -17.15517 8059 ft 251 kts 266°
2026-04-29 23:45 28.45275 -17.17496 8059 ft 251 kts 266°
2026-04-29 23:45 28.45129 -17.19476 8058 ft 251 kts 266°
2026-04-29 23:46 28.44985 -17.21455 8057 ft 251 kts 266°
2026-04-29 23:46 28.44839 -17.23434 8060 ft 251 kts 266°
2026-04-29 23:46 28.44695 -17.25411 8058 ft 251 kts 266°
2026-04-29 23:46 28.44549 -17.27389 8058 ft 251 kts 266°
2026-04-29 23:47 28.44503 -17.28029 8056 ft 251 kts 266°
2026-04-29 23:47 28.44424 -17.29096 8060 ft 251 kts 266°
2026-04-29 23:47 28.44277 -17.31075 8058 ft 251 kts 266°
2026-04-29 23:47 28.44129 -17.33048 8057 ft 251 kts 266°
2026-04-29 23:48 28.43985 -17.35027 8056 ft 251 kts 266°
2026-04-29 23:48 28.43839 -17.37005 8056 ft 251 kts 266°
2026-04-29 23:48 28.43688 -17.38982 8060 ft 251 kts 266°
2026-04-29 23:48 28.43543 -17.40955 8060 ft 251 kts 266°
2026-04-29 23:49 28.43391 -17.42928 8060 ft 251 kts 266°
2026-04-29 23:49 28.43255 -17.44874 8061 ft 250 kts 267°
2026-04-29 23:49 28.43180 -17.46854 8063 ft 250 kts 269°
2026-04-29 23:49 28.43166 -17.48827 8061 ft 249 kts 270°
2026-04-29 23:50 28.43155 -17.50793 8061 ft 249 kts 270°
2026-04-29 23:50 28.43136 -17.52800 7750 ft 259 kts 270°
2026-04-29 23:50 28.43084 -17.56936 7069 ft 260 kts 270°
2026-04-29 23:51 28.43054 -17.58980 6731 ft 257 kts 270°
2026-04-29 23:51 28.43024 -17.60998 6390 ft 255 kts 270°
2026-04-29 23:51 28.42995 -17.63002 6036 ft 253 kts 270°
2026-04-29 23:51 28.42969 -17.64995 5686 ft 251 kts 269°
2026-04-29 23:52 28.42946 -17.66855 5360 ft 223 kts 270°
2026-04-29 23:52 28.42925 -17.68529 5076 ft 207 kts 269°
2026-04-29 23:52 28.42900 -17.70165 4786 ft 203 kts 269°
2026-04-29 23:52 28.42877 -17.71718 4507 ft 189 kts 270°
2026-04-29 23:53 28.42870 -17.73154 4220 ft 172 kts 275°
2026-04-29 23:53 28.43426 -17.74283 3940 ft 169 kts 324°
2026-04-29 23:53 28.44480 -17.74781 3697 ft 164 kts 341°
2026-04-29 23:53 28.45597 -17.75088 3465 ft 165 kts 348°
2026-04-29 23:54 28.46712 -17.75261 3216 ft 157 kts 353°
2026-04-29 23:54 28.47763 -17.75333 2977 ft 144 kts 356°
2026-04-29 23:54 28.48695 -17.75350 2792 ft 128 kts 358°
2026-04-29 23:54 28.49578 -17.75302 2409 ft 133 kts
2026-04-29 23:55 28.50461 -17.75223 2276 ft 122 kts 358°
2026-04-29 23:55 28.51312 -17.75255 2134 ft 121 kts 356°
2026-04-29 23:55 28.52151 -17.75313 2007 ft 120 kts 354°
2026-04-29 23:55 28.52981 -17.75384 1909 ft 120 kts 355°
2026-04-29 23:56 28.53817 -17.75404 1833 ft 121 kts 359°
2026-04-29 23:56 28.54665 -17.75404 1716 ft 121 kts 359°
2026-04-29 23:56 28.55499 -17.75416 1596 ft 119 kts 359°
2026-04-29 23:56 28.56334 -17.75433 1415 ft 119 kts 358°
2026-04-29 23:57 28.57151 -17.75455 1137 ft 119 kts 359°
2026-04-29 23:57 28.57973 -17.75469 937 ft 116 kts 356°
2026-04-29 23:57 28.58787 -17.75482 786 ft 118 kts 358°
2026-04-29 23:57 28.59613 -17.75501 648 ft 119 kts 356°
2026-04-29 23:58 28.60444 -17.75513 481 ft 121 kts 356°
2026-04-29 23:58 28.61288 -17.75537 266 ft 123 kts 356°
2026-04-29 23:58 28.62135 -17.75554 115 ft 115 kts 357°
2026-04-29 23:58 28.62739 -17.75562 100 ft 43 kts
2026-04-29 23:59 28.62940 -17.75571 95 ft 7 kts 287°
2026-04-29 23:59 28.62921 -17.75580 95 ft 7 kts 161°
2026-04-29 23:59 28.62840 -17.75564 99 ft 16 kts 178°
2026-04-29 23:59 28.62709 -17.75554 101 ft 22 kts 164°
2026-04-30 00:00 28.62590 -17.75466 106 ft 18 kts 147°
2026-04-30 00:00 28.62478 -17.75448 107 ft 15 kts 179°
2026-04-30 00:00 28.62382 -17.75446 110 ft 12 kts 179°
2026-04-30 00:00 28.62302 -17.75444 110 ft 11 kts 179°
2026-04-30 00:01 28.62224 -17.75443 109 ft 11 kts 180°
2026-04-30 00:01 28.62146 -17.75443 111 ft 11 kts 180°
2026-04-30 00:01 28.62069 -17.75438 111 ft 11 kts 178°
2026-04-30 00:01 28.62015 -17.75426 111 ft 4 kts 124°
2026-04-30 00:02 28.62009 -17.75377 111 ft 9 kts 87°
2026-04-30 00:02 28.62010 -17.75353 111 ft 0 kts 89°